Tracking 25710 objects as of 5-Jul-2022
HD Live streaming from Space Station
objects crossing your sky now

FENGYUN 1C DEB

Track FENGYUN 1C DEB now!
10-day predictions


NORAD ID: 31297
Int'l Code: 1999-025BPF
Perigee: 622.8 km
Apogee: 840.4 km
Inclination: 99.0 °
Period: 99.3 minutes
Semi major axis: 7102 km
RCS: 0.0028 m2 (small)
Launch date: May 10, 1999
Source: People's Republic of China (PRC)
Launch site: Taiyaun Space Center, China (TSC)

Note: This is SATELLITE DEBRIS
aabbcc
Your satellite tracking list
Your tracking list is empty




NASA's NSSDC Master Catalog

Two Line Element Set (TLE):
1 31297U 99025BPF 22185.87214054  .00000250  00000-0  68691-4 0  9997
2 31297  98.9680 226.8945 0153147 322.4567 213.3540 14.50368432810621
Source of the keplerian elements: AFSPC